Time,TemperatureF,DewpointF,PressureIn,WindDirection,WindDirectionDegrees,WindSpeedMPH,WindSpeedGustMPH,Humidity,HourlyPrecipIn,Conditions,Clouds,dailyrainin,SoftwareType,DateUTC
2013-07-01 00:00:00,75.4,57.1,29.37,NNW,339,0.0,3.0,53,0.00,,,0.00,VWS V14.01,2013-07-01 05:00:00,
2013-07-01 00:01:00,75.4,57.1,29.37,NNW,339,0.0,0.0,53,0.00,,,0.00,VWS V14.01,2013-07-01 05:01:00,
2013-07-01 00:06:00,75.3,57.0,29.37,NNW,339,0.0,2.0,53,0.00,,,0.00,VWS V14.01,2013-07-01 05:06:00,
2013-07-01 00:10:00,75.2,57.4,29.36,NNW,340,0.0,2.0,54,0.00,,,0.00,VWS V14.01,2013-07-01 05:10:00,
2013-07-01 00:11:00,75.1,56.8,29.36,NNW,334,2.0,5.0,53,0.00,,,0.00,VWS V14.01,2013-07-01 05:11:00,
2013-07-01 00:16:00,74.9,57.2,29.37,NNW,341,2.0,5.0,54,0.00,,,0.00,VWS V14.01,2013-07-01 05:16:00,
2013-07-01 00:20:00,74.8,57.1,29.37,NNW,341,0.0,5.0,54,0.00,,,0.00,VWS V14.01,2013-07-01 05:20:00,
2013-07-01 00:21:00,74.8,57.1,29.37,NNW,341,2.0,2.0,54,0.00,,,0.00,VWS V14.01,2013-07-01 05:21:00,
2013-07-01 00:26:00,74.7,57.5,29.37,NNW,341,0.0,3.0,55,0.00,,,0.00,VWS V14.01,2013-07-01 05:26:00,
2013-07-01 00:30:00,74.6,57.4,29.37,NNW,341,0.0,3.0,55,0.00,,,0.00,VWS V14.01,2013-07-01 05:30:00,
2013-07-01 00:31:00,74.6,57.4,29.37,NNW,341,0.0,0.0,55,0.00,,,0.00,VWS V14.01,2013-07-01 05:31:00,
2013-07-01 00:36:00,74.5,57.3,29.36,NNW,341,0.0,4.0,55,0.00,,,0.00,VWS V14.01,2013-07-01 05:36:00,
2013-07-01 00:40:00,74.4,57.7,29.36,NNW,341,0.0,4.0,56,0.00,,,0.00,VWS V14.01,2013-07-01 05:40:00,
2013-07-01 00:41:00,74.4,57.7,29.36,NNW,341,0.0,0.0,56,0.00,,,0.00,VWS V14.01,2013-07-01 05:41:00,
2013-07-01 00:46:00,74.2,57.5,29.36,NNW,341,0.0,0.0,56,0.00,,,0.00,VWS V14.01,2013-07-01 05:46:00,
2013-07-01 00:50:00,74.2,57.5,29.37,NNW,341,0.0,0.0,56,0.00,,,0.00,VWS V14.01,2013-07-01 05:50:00,
2013-07-01 00:51:00,74.1,57.4,29.37,NNW,341,0.0,0.0,56,0.00,,,0.00,VWS V14.01,2013-07-01 05:51:00,
2013-07-01 00:56:00,74.0,57.3,29.37,NNW,341,0.0,1.0,56,0.00,,,0.00,VWS V14.01,2013-07-01 05:56:00,
2013-07-01 01:00:00,73.9,57.7,29.37,NNW,341,0.0,1.0,57,0.00,,,0.00,VWS V14.01,2013-07-01 06:00:00,
2013-07-01 01:01:00,73.9,57.7,29.37,NNW,341,0.0,0.0,57,0.00,,,0.00,VWS V14.01,2013-07-01 06:01:00,
2013-07-01 01:06:00,73.7,57.5,29.37,NNW,341,0.0,0.0,57,0.00,,,0.00,VWS V14.01,2013-07-01 06:06:00,
2013-07-01 01:10:00,73.6,57.4,29.37,NNW,341,0.0,0.0,57,0.00,,,0.00,VWS V14.01,2013-07-01 06:10:00,
2013-07-01 01:11:00,73.6,57.4,29.37,NNW,341,0.0,0.0,57,0.00,,,0.00,VWS V14.01,2013-07-01 06:11:00,
2013-07-01 01:16:00,73.4,57.7,29.37,NNW,341,0.0,0.0,58,0.00,,,0.00,VWS V14.01,2013-07-01 06:16:00,
2013-07-01 01:20:00,73.3,57.2,29.37,NNW,341,0.0,0.0,57,0.00,,,0.00,VWS V14.01,2013-07-01 06:20:00,
2013-07-01 01:21:00,73.3,57.2,29.37,NNW,341,0.0,0.0,57,0.00,,,0.00,VWS V14.01,2013-07-01 06:21:00,
2013-07-01 01:26:00,73.0,57.4,29.36,NNW,341,0.0,0.0,58,0.00,,,0.00,VWS V14.01,2013-07-01 06:26:00,
2013-07-01 01:30:00,72.8,57.2,29.36,NNW,341,0.0,0.0,58,0.00,,,0.00,VWS V14.01,2013-07-01 06:30:00,
2013-07-01 01:31:00,72.8,57.2,29.36,NNW,341,0.0,0.0,58,0.00,,,0.00,VWS V14.01,2013-07-01 06:31:00,
2013-07-01 01:36:00,72.6,57.5,29.36,NNW,341,0.0,0.0,59,0.00,,,0.00,VWS V14.01,2013-07-01 06:36:00,
2013-07-01 01:40:00,72.4,57.3,29.36,NNW,341,0.0,0.0,59,0.00,,,0.00,VWS V14.01,2013-07-01 06:40:00,
2013-07-01 01:41:00,72.4,57.3,29.36,NNW,341,0.0,0.0,59,0.00,,,0.00,VWS V14.01,2013-07-01 06:41:00,
2013-07-01 01:46:00,72.1,57.0,29.37,NNW,341,0.0,0.0,59,0.00,,,0.00,VWS V14.01,2013-07-01 06:46:00,
2013-07-01 01:50:00,71.9,56.8,29.36,NNW,341,0.0,0.0,59,0.00,,,0.00,VWS V14.01,2013-07-01 06:50:00,
2013-07-01 01:51:00,71.8,56.7,29.36,NNW,341,0.0,0.0,59,0.00,,,0.00,VWS V14.01,2013-07-01 06:51:00,
2013-07-01 01:56:00,71.6,57.0,29.36,NNW,341,0.0,0.0,60,0.00,,,0.00,VWS V14.01,2013-07-01 06:56:00,
2013-07-01 02:00:00,71.3,57.2,29.37,NNW,341,0.0,0.0,61,0.00,,,0.00,VWS V14.01,2013-07-01 07:00:00,
2013-07-01 02:01:00,71.3,57.2,29.37,NNW,341,0.0,0.0,61,0.00,,,0.00,VWS V14.01,2013-07-01 07:01:00,
2013-07-01 02:06:00,71.0,56.9,29.37,NNW,341,0.0,0.0,61,0.00,,,0.00,VWS V14.01,2013-07-01 07:06:00,
2013-07-01 02:10:00,70.7,56.6,29.37,NNW,341,0.0,0.0,61,0.00,,,0.00,VWS V14.01,2013-07-01 07:10:00,
2013-07-01 02:11:00,70.7,56.6,29.37,NNW,341,0.0,0.0,61,0.00,,,0.00,VWS V14.01,2013-07-01 07:11:00,
2013-07-01 02:16:00,70.4,56.8,29.37,NNW,341,0.0,0.0,62,0.00,,,0.00,VWS V14.01,2013-07-01 07:16:00,
2013-07-01 02:20:00,70.1,56.9,29.37,NNW,341,0.0,0.0,63,0.00,,,0.00,VWS V14.01,2013-07-01 07:20:00,
2013-07-01 02:21:00,70.1,56.9,29.37,NNW,341,0.0,0.0,63,0.00,,,0.00,VWS V14.01,2013-07-01 07:21:00,
2013-07-01 02:26:00,69.8,57.1,29.37,NNW,341,0.0,0.0,64,0.00,,,0.00,VWS V14.01,2013-07-01 07:26:00,
2013-07-01 02:30:00,69.6,56.9,29.37,NNW,341,0.0,0.0,64,0.00,,,0.00,VWS V14.01,2013-07-01 07:30:00,
2013-07-01 02:31:00,69.6,56.9,29.37,NNW,341,0.0,0.0,64,0.00,,,0.00,VWS V14.01,2013-07-01 07:31:00,
2013-07-01 02:36:00,69.4,57.1,29.37,NNW,341,0.0,0.0,65,0.00,,,0.00,VWS V14.01,2013-07-01 07:36:00,
2013-07-01 02:40:00,69.3,57.5,29.37,NNW,341,0.0,2.0,66,0.00,,,0.00,VWS V14.01,2013-07-01 07:40:00,
2013-07-01 02:41:00,69.2,57.4,29.37,NNW,341,0.0,0.0,66,0.00,,,0.00,VWS V14.01,2013-07-01 07:41:00,
2013-07-01 02:46:00,69.1,57.3,29.37,NNW,341,0.0,0.0,66,0.00,,,0.00,VWS V14.01,2013-07-01 07:46:00,
2013-07-01 02:50:00,69.0,57.6,29.37,NNW,341,0.0,0.0,67,0.00,,,0.00,VWS V14.01,2013-07-01 07:50:00,
2013-07-01 02:51:00,69.0,57.6,29.37,NNW,341,0.0,0.0,67,0.00,,,0.00,VWS V14.01,2013-07-01 07:51:00,
2013-07-01 02:56:00,68.9,57.5,29.37,NNW,341,0.0,0.0,67,0.00,,,0.00,VWS V14.01,2013-07-01 07:56:00,
2013-07-01 03:00:00,68.8,57.4,29.37,NNW,341,0.0,0.0,67,0.00,,,0.00,VWS V14.01,2013-07-01 08:00:00,
2013-07-01 03:01:00,68.8,57.4,29.37,NNW,341,0.0,0.0,67,0.00,,,0.00,VWS V14.01,2013-07-01 08:01:00,
2013-07-01 03:06:00,68.7,57.3,29.37,NNW,341,0.0,0.0,67,0.00,,,0.00,VWS V14.01,2013-07-01 08:06:00,
2013-07-01 03:10:00,68.6,57.6,29.37,NNW,341,0.0,0.0,68,0.00,,,0.00,VWS V14.01,2013-07-01 08:10:00,
2013-07-01 03:11:00,68.6,57.6,29.37,NNW,341,0.0,0.0,68,0.00,,,0.00,VWS V14.01,2013-07-01 08:11:00,
2013-07-01 03:16:00,68.4,57.4,29.37,NNW,341,0.0,0.0,68,0.00,,,0.00,VWS V14.01,2013-07-01 08:16:00,
2013-07-01 03:20:00,68.3,57.3,29.37,NNW,341,0.0,0.0,68,0.00,,,0.00,VWS V14.01,2013-07-01 08:20:00,
2013-07-01 03:21:00,68.3,57.3,29.37,NNW,341,0.0,0.0,68,0.00,,,0.00,VWS V14.01,2013-07-01 08:21:00,
2013-07-01 03:26:00,68.1,57.6,29.37,NNW,341,0.0,0.0,69,0.00,,,0.00,VWS V14.01,2013-07-01 08:26:00,
2013-07-01 03:30:00,68.0,57.5,29.37,NNW,341,0.0,0.0,69,0.00,,,0.00,VWS V14.01,2013-07-01 08:30:00,
2013-07-01 03:31:00,67.9,57.4,29.37,NNW,341,0.0,0.0,69,0.00,,,0.00,VWS V14.01,2013-07-01 08:31:00,
2013-07-01 03:36:00,67.7,57.2,29.37,NNW,341,0.0,0.0,69,0.00,,,0.00,VWS V14.01,2013-07-01 08:36:00,
2013-07-01 03:40:00,67.6,57.5,29.37,NNW,341,0.0,0.0,70,0.00,,,0.00,VWS V14.01,2013-07-01 08:40:00,
2013-07-01 03:41:00,67.6,57.5,29.37,NNW,341,0.0,0.0,70,0.00,,,0.00,VWS V14.01,2013-07-01 08:41:00,
2013-07-01 03:46:00,67.4,57.3,29.38,NNW,341,0.0,0.0,70,0.00,,,0.00,VWS V14.01,2013-07-01 08:46:00,
2013-07-01 03:50:00,67.3,57.2,29.38,NNW,341,0.0,0.0,70,0.00,,,0.00,VWS V14.01,2013-07-01 08:50:00,
2013-07-01 03:51:00,67.2,57.1,29.38,NNW,341,0.0,0.0,70,0.00,,,0.00,VWS V14.01,2013-07-01 08:51:00,
2013-07-01 03:56:00,67.1,57.0,29.38,NNW,341,0.0,0.0,70,0.00,,,0.00,VWS V14.01,2013-07-01 08:56:00,
2013-07-01 04:00:00,67.0,57.3,29.38,NNW,341,0.0,0.0,71,0.00,,,0.00,VWS V14.01,2013-07-01 09:00:00,
2013-07-01 04:01:00,67.0,57.3,29.38,NNW,341,0.0,0.0,71,0.00,,,0.00,VWS V14.01,2013-07-01 09:01:00,
2013-07-01 04:06:00,66.9,57.2,29.38,NNW,341,0.0,0.0,71,0.00,,,0.00,VWS V14.01,2013-07-01 09:06:00,
2013-07-01 04:10:00,66.8,57.5,29.38,NNW,341,0.0,0.0,72,0.00,,,0.00,VWS V14.01,2013-07-01 09:10:00,
2013-07-01 04:11:00,66.7,57.4,29.38,NNW,341,0.0,0.0,72,0.00,,,0.00,VWS V14.01,2013-07-01 09:11:00,
2013-07-01 04:16:00,66.7,57.4,29.39,NNW,341,0.0,0.0,72,0.00,,,0.00,VWS V14.01,2013-07-01 09:16:00,
2013-07-01 04:20:00,66.6,57.3,29.38,NNW,341,0.0,0.0,72,0.00,,,0.00,VWS V14.01,2013-07-01 09:20:00,
2013-07-01 04:21:00,66.6,57.3,29.38,NNW,341,0.0,0.0,72,0.00,,,0.00,VWS V14.01,2013-07-01 09:21:00,
2013-07-01 04:26:00,66.5,57.2,29.38,NNW,341,0.0,0.0,72,0.00,,,0.00,VWS V14.01,2013-07-01 09:26:00,
2013-07-01 04:30:00,66.4,57.5,29.39,NNW,341,0.0,0.0,73,0.00,,,0.00,VWS V14.01,2013-07-01 09:30:00,
2013-07-01 04:31:00,66.4,57.5,29.39,NNW,341,0.0,0.0,73,0.00,,,0.00,VWS V14.01,2013-07-01 09:31:00,
2013-07-01 04:36:00,66.3,57.4,29.39,NNW,341,0.0,0.0,73,0.00,,,0.00,VWS V14.01,2013-07-01 09:36:00,
2013-07-01 04:40:00,66.3,57.4,29.39,NNW,341,0.0,0.0,73,0.00,,,0.00,VWS V14.01,2013-07-01 09:40:00,
2013-07-01 04:41:00,66.3,57.4,29.39,NNW,342,0.0,0.0,73,0.00,,,0.00,VWS V14.01,2013-07-01 09:41:00,
2013-07-01 04:46:00,66.2,57.3,29.39,NNW,341,0.0,0.0,73,0.00,,,0.00,VWS V14.01,2013-07-01 09:46:00,
2013-07-01 04:50:00,66.1,57.2,29.39,NNW,341,0.0,0.0,73,0.00,,,0.00,VWS V14.01,2013-07-01 09:50:00,
2013-07-01 04:51:00,66.1,57.2,29.39,NNW,341,0.0,0.0,73,0.00,,,0.00,VWS V14.01,2013-07-01 09:51:00,
2013-07-01 04:56:00,66.0,57.5,29.39,NNW,341,0.0,0.0,74,0.00,,,0.00,VWS V14.01,2013-07-01 09:56:00,
2013-07-01 05:00:00,65.9,57.0,29.39,NNW,341,0.0,0.0,73,0.00,,,0.00,VWS V14.01,2013-07-01 10:00:00,
2013-07-01 05:01:00,65.9,57.0,29.39,NNW,341,0.0,0.0,73,0.00,,,0.00,VWS V14.01,2013-07-01 10:01:00,
2013-07-01 05:06:00,65.8,57.3,29.39,NNW,341,0.0,0.0,74,0.00,,,0.00,VWS V14.01,2013-07-01 10:06:00,
2013-07-01 05:10:00,65.7,57.2,29.40,NNW,341,0.0,0.0,74,0.00,,,0.00,VWS V14.01,2013-07-01 10:10:00,
2013-07-01 05:11:00,65.7,57.2,29.40,NNW,341,0.0,0.0,74,0.00,,,0.00,VWS V14.01,2013-07-01 10:11:00,
2013-07-01 05:16:00,65.6,57.5,29.40,NNW,341,0.0,0.0,75,0.00,,,0.00,VWS V14.01,2013-07-01 10:16:00,
2013-07-01 05:20:00,65.5,57.4,29.40,NNW,341,0.0,0.0,75,0.00,,,0.00,VWS V14.01,2013-07-01 10:20:00,
2013-07-01 05:21:00,65.5,57.4,29.40,NNW,341,0.0,0.0,75,0.00,,,0.00,VWS V14.01,2013-07-01 10:21:00,
2013-07-01 05:26:00,65.4,57.7,29.40,NNW,341,0.0,0.0,76,0.00,,,0.00,VWS V14.01,2013-07-01 10:26:00,
2013-07-01 05:30:00,65.3,57.5,29.40,NNW,341,0.0,0.0,76,0.00,,,0.00,VWS V14.01,2013-07-01 10:30:00,
2013-07-01 05:31:00,65.3,57.5,29.41,NNW,341,0.0,0.0,76,0.00,,,0.00,VWS V14.01,2013-07-01 10:31:00,
2013-07-01 05:36:00,65.2,57.5,29.41,NNW,341,0.0,0.0,76,0.00,,,0.00,VWS V14.01,2013-07-01 10:36:00,
2013-07-01 05:40:00,65.1,57.4,29.41,NNW,341,0.0,0.0,76,0.00,,,0.00,VWS V14.01,2013-07-01 10:40:00,
2013-07-01 05:41:00,65.1,57.4,29.41,NNW,341,0.0,0.0,76,0.00,,,0.00,VWS V14.01,2013-07-01 10:41:00,
2013-07-01 05:46:00,65.0,57.6,29.40,NNW,341,0.0,0.0,77,0.00,,,0.00,VWS V14.01,2013-07-01 10:46:00,
2013-07-01 05:50:00,65.0,57.6,29.41,NNW,341,0.0,0.0,77,0.00,,,0.00,VWS V14.01,2013-07-01 10:50:00,
2013-07-01 05:51:00,64.9,57.5,29.41,NNW,341,0.0,0.0,77,0.00,,,0.00,VWS V14.01,2013-07-01 10:51:00,
2013-07-01 05:56:00,64.8,57.4,29.41,NNW,341,0.0,0.0,77,0.00,,,0.00,VWS V14.01,2013-07-01 10:56:00,
2013-07-01 06:00:00,64.7,57.3,29.41,NNW,341,0.0,0.0,77,0.00,,,0.00,VWS V14.01,2013-07-01 11:00:00,
2013-07-01 06:01:00,64.7,57.3,29.41,NNW,341,0.0,0.0,77,0.00,,,0.00,VWS V14.01,2013-07-01 11:01:00,
2013-07-01 06:06:00,64.6,57.2,29.41,NNW,341,0.0,0.0,77,0.00,,,0.00,VWS V14.01,2013-07-01 11:06:00,
2013-07-01 06:10:00,64.5,57.5,29.41,NNW,341,0.0,0.0,78,0.00,,,0.00,VWS V14.01,2013-07-01 11:10:00,
2013-07-01 06:11:00,64.5,57.5,29.41,NNW,341,0.0,0.0,78,0.00,,,0.00,VWS V14.01,2013-07-01 11:11:00,
2013-07-01 06:16:00,64.5,57.5,29.41,NNW,341,0.0,0.0,78,0.00,,,0.00,VWS V14.01,2013-07-01 11:16:00,
2013-07-01 06:20:00,64.4,57.4,29.42,NNW,341,0.0,0.0,78,0.00,,,0.00,VWS V14.01,2013-07-01 11:20:00,
2013-07-01 06:21:00,64.4,57.4,29.42,NNW,341,0.0,0.0,78,0.00,,,0.00,VWS V14.01,2013-07-01 11:21:00,
2013-07-01 06:26:00,64.3,57.7,29.42,NNW,341,0.0,0.0,79,0.00,,,0.00,VWS V14.01,2013-07-01 11:26:00,
2013-07-01 06:30:00,64.3,57.7,29.42,NNW,341,0.0,0.0,79,0.00,,,0.00,VWS V14.01,2013-07-01 11:30:00,
2013-07-01 06:31:00,64.3,57.7,29.42,NNW,341,0.0,0.0,79,0.00,,,0.00,VWS V14.01,2013-07-01 11:31:00,
2013-07-01 06:36:00,64.3,57.7,29.42,NNW,341,0.0,0.0,79,0.00,,,0.00,VWS V14.01,2013-07-01 11:36:00,
2013-07-01 06:40:00,64.2,57.6,29.42,NNW,342,0.0,0.0,79,0.00,,,0.00,VWS V14.01,2013-07-01 11:40:00,
2013-07-01 06:41:00,64.2,57.6,29.42,NNW,341,0.0,0.0,79,0.00,,,0.00,VWS V14.01,2013-07-01 11:41:00,
2013-07-01 06:46:00,64.2,57.9,29.42,NNW,341,0.0,0.0,80,0.00,,,0.00,VWS V14.01,2013-07-01 11:46:00,
2013-07-01 06:50:00,64.2,57.9,29.42,NNW,341,0.0,0.0,80,0.00,,,0.00,VWS V14.01,2013-07-01 11:50:00,
2013-07-01 06:51:00,64.2,57.9,29.42,NNW,341,0.0,0.0,80,0.00,,,0.00,VWS V14.01,2013-07-01 11:51:00,
2013-07-01 06:56:00,64.2,57.9,29.42,NNW,341,0.0,0.0,80,0.00,,,0.00,VWS V14.01,2013-07-01 11:56:00,
2013-07-01 07:00:00,64.2,58.3,29.42,NNW,341,0.0,0.0,81,0.00,,,0.00,VWS V14.01,2013-07-01 12:00:00,
2013-07-01 07:05:00,64.2,58.3,29.43,NNW,341,0.0,0.0,81,0.00,,,0.00,VWS V14.01,2013-07-01 12:05:00,
2013-07-01 07:10:00,64.2,58.3,29.43,NNW,341,0.0,0.0,81,0.00,,,0.00,VWS V14.01,2013-07-01 12:10:00,
2013-07-01 07:15:00,64.3,58.3,29.43,NNW,341,0.0,0.0,81,0.00,,,0.00,VWS V14.01,2013-07-01 12:15:00,
2013-07-01 07:20:00,64.4,58.8,29.43,NNW,341,0.0,0.0,82,0.00,,,0.00,VWS V14.01,2013-07-01 12:20:00,
2013-07-01 07:25:00,64.5,58.9,29.44,NNW,341,0.0,0.0,82,0.00,,,0.00,VWS V14.01,2013-07-01 12:25:00,
2013-07-01 07:30:00,64.7,59.1,29.44,NNW,341,0.0,0.0,82,0.00,,,0.00,VWS V14.01,2013-07-01 12:30:00,
2013-07-01 07:35:00,64.9,59.6,29.44,SW,234,0.0,0.0,83,0.00,,,0.00,VWS V14.01,2013-07-01 12:35:00,
2013-07-01 07:40:00,65.2,59.9,29.44,SW,234,0.0,0.0,83,0.00,,,0.00,VWS V14.01,2013-07-01 12:40:00,
2013-07-01 07:45:00,65.5,60.5,29.44,SW,234,0.0,0.0,84,0.00,,,0.00,VWS V14.01,2013-07-01 12:45:00,
2013-07-01 07:50:00,65.9,60.6,29.44,SW,235,0.0,1.0,83,0.00,,,0.00,VWS V14.01,2013-07-01 12:50:00,
2013-07-01 07:55:00,66.3,61.0,29.44,SW,235,0.0,1.0,83,0.00,,,0.00,VWS V14.01,2013-07-01 12:55:00,
2013-07-01 08:00:00,66.6,61.3,29.44,SW,236,0.0,1.0,83,0.00,,,0.00,VWS V14.01,2013-07-01 13:00:00,
2013-07-01 08:05:00,66.8,61.5,29.45,WSW,254,3.0,3.0,83,0.00,,,0.00,VWS V14.01,2013-07-01 13:05:00,
2013-07-01 08:10:00,67.2,61.5,29.45,WSW,254,1.0,2.0,82,0.00,,,0.00,VWS V14.01,2013-07-01 13:10:00,
2013-07-01 08:15:00,67.6,61.6,29.45,NW,305,2.0,4.0,81,0.00,,,0.00,VWS V14.01,2013-07-01 13:15:00,
2013-07-01 08:20:00,68.1,62.1,29.45,NW,308,0.0,2.0,81,0.00,,,0.00,VWS V14.01,2013-07-01 13:20:00,
2013-07-01 08:25:00,68.5,62.1,29.45,NNW,346,2.0,6.0,80,0.00,,,0.00,VWS V14.01,2013-07-01 13:25:00,
2013-07-01 08:30:00,69.0,62.6,29.45,NNW,346,0.0,3.0,80,0.00,,,0.00,VWS V14.01,2013-07-01 13:30:00,
2013-07-01 08:35:00,70.1,62.9,29.45,North,349,4.0,6.0,78,0.00,,,0.00,VWS V14.01,2013-07-01 13:35:00,
2013-07-01 08:40:00,71.1,63.2,29.45,North,360,0.0,2.0,76,0.00,,,0.00,VWS V14.01,2013-07-01 13:40:00,
2013-07-01 08:45:00,71.8,63.5,29.45,North,360,0.0,4.0,75,0.00,,,0.00,VWS V14.01,2013-07-01 13:45:00,
2013-07-01 08:50:00,72.4,63.7,29.45,North,360,1.0,2.0,74,0.00,,,0.00,VWS V14.01,2013-07-01 13:50:00,
2013-07-01 08:55:00,72.7,63.5,29.45,North,355,5.0,7.0,73,0.00,,,0.00,VWS V14.01,2013-07-01 13:55:00,
2013-07-01 09:00:00,72.9,63.3,29.45,NNW,348,4.0,5.0,72,0.00,,,0.00,VWS V14.01,2013-07-01 14:00:00,
2013-07-01 09:05:00,73.2,64.0,29.45,NNW,342,3.0,5.0,73,0.00,,,0.00,VWS V14.01,2013-07-01 14:05:00,
2013-07-01 09:10:00,74.3,63.9,29.45,North,5,2.0,5.0,70,0.00,,,0.00,VWS V14.01,2013-07-01 14:10:00,
2013-07-01 09:15:00,74.4,64.0,29.45,North,349,0.0,6.0,70,0.00,,,0.00,VWS V14.01,2013-07-01 14:15:00,
2013-07-01 09:20:00,74.9,64.5,29.45,North,355,1.0,2.0,70,0.00,,,0.00,VWS V14.01,2013-07-01 14:20:00,
2013-07-01 09:25:00,75.8,64.9,29.45,North,355,0.0,3.0,69,0.00,,,0.00,VWS V14.01,2013-07-01 14:25:00,
2013-07-01 09:30:00,75.3,64.4,29.45,NE,51,0.0,0.0,69,0.00,,,0.00,VWS V14.01,2013-07-01 14:30:00,
2013-07-01 09:35:00,75.8,64.5,29.45,NNE,32,2.0,4.0,68,0.00,,,0.00,VWS V14.01,2013-07-01 14:35:00,
2013-07-01 09:40:00,76.1,65.2,29.45,North,349,0.0,2.0,69,0.00,,,0.00,VWS V14.01,2013-07-01 14:40:00,
2013-07-01 09:45:00,76.7,65.8,29.45,North,349,1.0,3.0,69,0.00,,,0.00,VWS V14.01,2013-07-01 14:45:00,
2013-07-01 09:50:00,77.6,65.3,29.46,NNW,348,4.0,6.0,66,0.00,,,0.00,VWS V14.01,2013-07-01 14:50:00,
2013-07-01 09:55:00,77.8,64.2,29.45,NNW,344,4.0,6.0,63,0.00,,,0.00,VWS V14.01,2013-07-01 14:55:00,
2013-07-01 10:00:00,77.7,65.0,29.46,North,360,0.0,0.0,65,0.00,,,0.00,VWS V14.01,2013-07-01 15:00:00,
2013-07-01 10:05:00,78.6,65.0,29.45,North,9,2.0,4.0,63,0.00,,,0.00,VWS V14.01,2013-07-01 15:05:00,
2013-07-01 10:10:00,78.7,65.5,29.46,NNW,347,4.0,5.0,64,0.00,,,0.00,VWS V14.01,2013-07-01 15:10:00,
2013-07-01 10:15:00,79.4,65.3,29.45,NNW,343,5.0,6.0,62,0.00,,,0.00,VWS V14.01,2013-07-01 15:15:00,
2013-07-01 10:20:00,79.2,65.1,29.45,North,360,0.0,1.0,62,0.00,,,0.00,VWS V14.01,2013-07-01 15:20:00,
2013-07-01 10:25:00,79.2,64.6,29.45,NNE,13,2.0,8.0,61,0.00,,,0.00,VWS V14.01,2013-07-01 15:25:00,
2013-07-01 10:30:00,80.1,65.0,29.45,North,360,1.0,2.0,60,0.00,,,0.00,VWS V14.01,2013-07-01 15:30:00,
2013-07-01 10:35:00,79.6,64.5,29.45,NNW,348,3.0,8.0,60,0.00,,,0.00,VWS V14.01,2013-07-01 15:35:00,
2013-07-01 10:40:00,80.1,65.4,29.45,North,350,4.0,4.0,61,0.00,,,0.00,VWS V14.01,2013-07-01 15:40:00,
2013-07-01 10:45:00,80.2,64.6,29.45,North,5,1.0,8.0,59,0.00,,,0.00,VWS V14.01,2013-07-01 15:45:00,
2013-07-01 10:50:00,80.8,65.6,29.45,North,355,6.0,6.0,60,0.00,,,0.00,VWS V14.01,2013-07-01 15:50:00,
2013-07-01 10:55:00,81.5,65.8,29.45,North,360,2.0,6.0,59,0.00,,,0.00,VWS V14.01,2013-07-01 15:55:00,
2013-07-01 11:00:00,81.6,64.9,29.45,North,350,3.0,6.0,57,0.00,,,0.00,VWS V14.01,2013-07-01 16:00:00,
2013-07-01 11:06:00,80.7,65.1,29.45,NNW,346,3.0,8.0,59,0.00,,,0.00,VWS V14.01,2013-07-01 16:06:00,
2013-07-01 11:10:00,80.7,65.1,29.45,North,351,1.0,8.0,59,0.00,,,0.00,VWS V14.01,2013-07-01 16:10:00,
2013-07-01 11:11:00,80.9,65.2,29.45,North,351,1.0,1.0,59,0.00,,,0.00,VWS V14.01,2013-07-01 16:11:00,
2013-07-01 11:16:00,82.2,66.0,29.45,NNW,346,4.0,7.0,58,0.00,,,0.00,VWS V14.01,2013-07-01 16:16:00,
2013-07-01 11:20:00,83.4,66.1,29.45,NW,321,2.0,7.0,56,0.00,,,0.00,VWS V14.01,2013-07-01 16:20:00,
2013-07-01 11:21:00,83.4,65.6,29.45,NW,323,1.0,2.0,55,0.00,,,0.00,VWS V14.01,2013-07-01 16:21:00,
2013-07-01 11:26:00,83.3,64.9,29.45,NNW,344,5.0,8.0,54,0.00,,,0.00,VWS V14.01,2013-07-01 16:26:00,
2013-07-01 11:30:00,83.0,64.7,29.45,NNW,338,0.0,8.0,54,0.00,,,0.00,VWS V14.01,2013-07-01 16:30:00,
2013-07-01 11:31:00,82.9,65.1,29.45,NNW,340,3.0,6.0,55,0.00,,,0.00,VWS V14.01,2013-07-01 16:31:00,
2013-07-01 11:36:00,83.7,64.2,29.45,North,355,6.0,8.0,52,0.00,,,0.00,VWS V14.01,2013-07-01 16:36:00,
2013-07-01 11:40:00,82.4,63.0,29.45,NNW,339,4.0,9.0,52,0.00,,,0.00,VWS V14.01,2013-07-01 16:40:00,
2013-07-01 11:41:00,82.0,63.2,29.45,NNW,339,2.0,4.0,53,0.00,,,0.00,VWS V14.01,2013-07-01 16:41:00,
2013-07-01 11:46:00,82.4,64.6,29.45,NNW,340,6.0,8.0,55,0.00,,,0.00,VWS V14.01,2013-07-01 16:46:00,
2013-07-01 11:50:00,82.8,63.9,29.45,NNW,341,4.0,8.0,53,0.00,,,0.00,VWS V14.01,2013-07-01 16:50:00,
2013-07-01 11:51:00,82.7,63.8,29.45,NNE,22,3.0,5.0,53,0.00,,,0.00,VWS V14.01,2013-07-01 16:51:00,
2013-07-01 11:56:00,81.8,63.5,29.45,NNE,18,1.0,5.0,54,0.00,,,0.00,VWS V14.01,2013-07-01 16:56:00,
2013-07-01 12:00:00,82.3,64.0,29.45,North,350,5.0,6.0,54,0.00,,,0.00,VWS V14.01,2013-07-01 17:00:00,
2013-07-01 12:01:00,82.5,63.1,29.45,North,350,1.0,6.0,52,0.00,,,0.00,VWS V14.01,2013-07-01 17:01:00,
2013-07-01 12:06:00,83.9,64.9,29.45,NNE,26,1.0,6.0,53,0.00,,,0.00,VWS V14.01,2013-07-01 17:06:00,
2013-07-01 12:10:00,84.2,65.2,29.44,NE,52,1.0,6.0,53,0.00,,,0.00,VWS V14.01,2013-07-01 17:10:00,
2013-07-01 12:11:00,84.1,64.0,29.44,NNW,343,6.0,6.0,51,0.00,,,0.00,VWS V14.01,2013-07-01 17:11:00,
2013-07-01 12:16:00,84.0,63.4,29.44,ENE,63,3.0,8.0,50,0.00,,,0.00,VWS V14.01,2013-07-01 17:16:00,
2013-07-01 12:20:00,85.2,64.5,29.44,NE,47,1.0,8.0,50,0.00,,,0.00,VWS V14.01,2013-07-01 17:20:00,
2013-07-01 12:21:00,85.4,64.1,29.44,NNE,29,2.0,3.0,49,0.00,,,0.00,VWS V14.01,2013-07-01 17:21:00,
2013-07-01 12:26:00,85.1,63.2,29.44,WNW,301,7.0,8.0,48,0.00,,,0.00,VWS V14.01,2013-07-01 17:26:00,
2013-07-01 12:30:00,83.9,62.7,29.44,NNW,336,7.0,9.0,49,0.00,,,0.00,VWS V14.01,2013-07-01 17:30:00,
2013-07-01 12:31:00,83.6,62.4,29.44,NNW,346,2.0,7.0,49,0.00,,,0.00,VWS V14.01,2013-07-01 17:31:00,
2013-07-01 12:36:00,82.9,64.0,29.44,NNW,329,9.0,9.0,53,0.00,,,0.00,VWS V14.01,2013-07-01 17:36:00,
2013-07-01 12:40:00,84.2,63.6,29.44,North,10,2.0,9.0,50,0.00,,,0.00,VWS V14.01,2013-07-01 17:40:00,
2013-07-01 12:41:00,84.3,62.5,29.44,North,351,0.0,4.0,48,0.00,,,0.00,VWS V14.01,2013-07-01 17:41:00,
2013-07-01 12:46:00,83.7,63.1,29.44,NE,53,3.0,7.0,50,0.00,,,0.00,VWS V14.01,2013-07-01 17:46:00,
2013-07-01 12:50:00,84.2,62.4,29.44,NNW,341,6.0,8.0,48,0.00,,,0.00,VWS V14.01,2013-07-01 17:50:00,
2013-07-01 12:51:00,84.3,63.1,29.44,NNW,327,2.0,6.0,49,0.00,,,0.00,VWS V14.01,2013-07-01 17:51:00,
2013-07-01 12:56:00,85.2,62.1,29.43,NE,41,5.0,7.0,46,0.00,,,0.00,VWS V14.01,2013-07-01 17:56:00,
2013-07-01 13:00:00,85.0,61.3,29.43,NNW,340,3.0,8.0,45,0.00,,,0.00,VWS V14.01,2013-07-01 18:00:00,
2013-07-01 13:01:00,84.7,61.0,29.43,WNW,303,2.0,7.0,45,0.00,,,0.00,VWS V14.01,2013-07-01 18:01:00,
2013-07-01 13:06:00,85.0,61.3,29.43,East,84,2.0,7.0,45,0.00,,,0.00,VWS V14.01,2013-07-01 18:06:00,
2013-07-01 13:10:00,85.7,61.9,29.43,NNW,348,6.0,8.0,45,0.00,,,0.00,VWS V14.01,2013-07-01 18:10:00,
2013-07-01 13:11:00,85.8,60.7,29.43,NNE,22,4.0,8.0,43,0.00,,,0.00,VWS V14.01,2013-07-01 18:11:00,
2013-07-01 13:16:00,84.5,58.9,29.43,North,349,5.0,11.0,42,0.00,,,0.00,VWS V14.01,2013-07-01 18:16:00,
2013-07-01 13:20:00,83.9,59.7,29.43,North,355,7.0,11.0,44,0.00,,,0.00,VWS V14.01,2013-07-01 18:20:00,
2013-07-01 13:21:00,84.1,59.2,29.43,NNW,333,7.0,11.0,43,0.00,,,0.00,VWS V14.01,2013-07-01 18:21:00,
2013-07-01 13:26:00,84.9,61.2,29.43,North,355,0.0,11.0,45,0.00,,,0.00,VWS V14.01,2013-07-01 18:26:00,
2013-07-01 13:30:00,85.9,60.2,29.43,North,350,1.0,11.0,42,0.00,,,0.00,VWS V14.01,2013-07-01 18:30:00,
2013-07-01 13:31:00,85.9,61.5,29.43,NNW,333,5.0,7.0,44,0.00,,,0.00,VWS V14.01,2013-07-01 18:31:00,
2013-07-01 13:36:00,85.9,60.8,29.43,North,360,3.0,11.0,43,0.00,,,0.00,VWS V14.01,2013-07-01 18:36:00,
2013-07-01 13:40:00,85.5,59.1,29.43,NW,309,10.0,13.0,41,0.00,,,0.00,VWS V14.01,2013-07-01 18:40:00,
2013-07-01 13:41:00,85.6,60.6,29.43,NNW,333,7.0,10.0,43,0.00,,,0.00,VWS V14.01,2013-07-01 18:41:00,
2013-07-01 13:46:00,86.5,62.0,29.43,NNE,16,4.0,10.0,44,0.00,,,0.00,VWS V14.01,2013-07-01 18:46:00,
2013-07-01 13:50:00,86.0,60.3,29.42,NE,42,2.0,10.0,42,0.00,,,0.00,VWS V14.01,2013-07-01 18:50:00,
2013-07-01 13:51:00,86.0,61.6,29.42,NNW,340,3.0,5.0,44,0.00,,,0.00,VWS V14.01,2013-07-01 18:51:00,
2013-07-01 13:56:00,86.0,60.3,29.42,NNW,341,8.0,14.0,42,0.00,,,0.00,VWS V14.01,2013-07-01 18:56:00,
2013-07-01 14:00:00,86.5,60.7,29.42,NNW,329,2.0,14.0,42,0.00,,,0.00,VWS V14.01,2013-07-01 19:00:00,
2013-07-01 14:01:00,86.5,62.0,29.42,NNW,344,2.0,2.0,44,0.00,,,0.00,VWS V14.01,2013-07-01 19:01:00,
2013-07-01 14:06:00,85.4,59.7,29.42,NNW,342,4.0,10.0,42,0.00,,,0.00,VWS V14.01,2013-07-01 19:06:00,
2013-07-01 14:10:00,84.5,60.8,29.42,North,5,8.0,14.0,45,0.00,,,0.00,VWS V14.01,2013-07-01 19:10:00,
2013-07-01 14:11:00,84.6,60.3,29.42,NNW,337,7.0,10.0,44,0.00,,,0.00,VWS V14.01,2013-07-01 19:11:00,
2013-07-01 14:16:00,84.6,60.9,29.42,NNW,340,4.0,10.0,45,0.00,,,0.00,VWS V14.01,2013-07-01 19:16:00,
2013-07-01 14:20:00,84.5,59.6,29.42,ENE,61,1.0,10.0,43,0.00,,,0.00,VWS V14.01,2013-07-01 19:20:00,
2013-07-01 14:21:00,84.4,59.5,29.42,North,5,3.0,6.0,43,0.00,,,0.00,VWS V14.01,2013-07-01 19:21:00,
2013-07-01 14:26:00,86.1,62.3,29.42,NW,324,2.0,7.0,45,0.00,,,0.00,VWS V14.01,2013-07-01 19:26:00,
2013-07-01 14:30:00,86.5,60.7,29.42,NNW,346,0.0,7.0,42,0.00,,,0.00,VWS V14.01,2013-07-01 19:30:00,
2013-07-01 14:31:00,86.3,60.5,29.42,North,351,0.0,2.0,42,0.00,,,0.00,VWS V14.01,2013-07-01 19:31:00,
2013-07-01 14:36:00,85.6,59.2,29.42,North,350,2.0,14.0,41,0.00,,,0.00,VWS V14.01,2013-07-01 19:36:00,
2013-07-01 14:40:00,84.8,59.2,29.42,North,355,2.0,14.0,42,0.00,,,0.00,VWS V14.01,2013-07-01 19:40:00,
2013-07-01 14:41:00,84.6,59.0,29.42,NNW,337,4.0,8.0,42,0.00,,,0.00,VWS V14.01,2013-07-01 19:41:00,
2013-07-01 14:46:00,85.3,61.6,29.42,NNW,340,5.0,8.0,45,0.00,,,0.00,VWS V14.01,2013-07-01 19:46:00,
2013-07-01 14:50:00,85.6,59.9,29.42,NW,314,4.0,12.0,42,0.00,,,0.00,VWS V14.01,2013-07-01 19:50:00,
2013-07-01 14:51:00,85.4,59.7,29.42,North,11,6.0,7.0,42,0.00,,,0.00,VWS V14.01,2013-07-01 19:51:00,
2013-07-01 14:56:00,85.1,59.5,29.42,NNE,22,3.0,10.0,42,0.00,,,0.00,VWS V14.01,2013-07-01 19:56:00,
2013-07-01 15:00:00,86.7,62.2,29.42,WNW,294,1.0,10.0,44,0.00,,,0.00,VWS V14.01,2013-07-01 20:00:00,
2013-07-01 15:01:00,87.3,62.7,29.41,NNW,329,0.0,5.0,44,0.00,,,0.00,VWS V14.01,2013-07-01 20:01:00,
2013-07-01 15:06:00,87.3,60.8,29.41,NE,44,4.0,8.0,41,0.00,,,0.00,VWS V14.01,2013-07-01 20:06:00,
2013-07-01 15:10:00,87.8,60.5,29.42,ENE,78,4.0,10.0,40,0.00,,,0.00,VWS V14.01,2013-07-01 20:10:00,
2013-07-01 15:11:00,87.6,61.0,29.41,East,85,8.0,8.0,41,0.00,,,0.00,VWS V14.01,2013-07-01 20:11:00,
2013-07-01 15:16:00,87.1,60.6,29.41,NNW,333,4.0,9.0,41,0.00,,,0.00,VWS V14.01,2013-07-01 20:16:00,
2013-07-01 15:20:00,86.4,59.2,29.41,NNE,17,1.0,9.0,40,0.00,,,0.00,VWS V14.01,2013-07-01 20:20:00,
2013-07-01 15:21:00,86.1,60.3,29.41,NNE,15,0.0,4.0,42,0.00,,,0.00,VWS V14.01,2013-07-01 20:21:00,
2013-07-01 15:26:00,86.5,59.3,29.41,NE,35,0.0,8.0,40,0.00,,,0.00,VWS V14.01,2013-07-01 20:26:00,
2013-07-01 15:30:00,85.9,59.5,29.41,NNE,30,1.0,8.0,41,0.00,,,0.00,VWS V14.01,2013-07-01 20:30:00,
2013-07-01 15:31:00,85.7,59.3,29.41,NNE,12,2.0,4.0,41,0.00,,,0.00,VWS V14.01,2013-07-01 20:31:00,
2013-07-01 15:36:00,85.2,58.2,29.41,NW,326,4.0,5.0,40,0.00,,,0.00,VWS V14.01,2013-07-01 20:36:00,
2013-07-01 15:40:00,85.0,58.0,29.41,NNW,329,4.0,7.0,40,0.00,,,0.00,VWS V14.01,2013-07-01 20:40:00,
2013-07-01 15:41:00,84.9,57.9,29.41,NNW,332,4.0,5.0,40,0.00,,,0.00,VWS V14.01,2013-07-01 20:41:00,
2013-07-01 15:46:00,85.6,59.2,29.41,NNW,347,0.0,5.0,41,0.00,,,0.00,VWS V14.01,2013-07-01 20:46:00,
2013-07-01 15:50:00,86.2,60.4,29.41,East,80,2.0,7.0,42,0.00,,,0.00,VWS V14.01,2013-07-01 20:50:00,
2013-07-01 15:51:00,86.5,61.4,29.41,ENE,78,0.0,3.0,43,0.00,,,0.00,VWS V14.01,2013-07-01 20:51:00,
2013-07-01 15:56:00,87.5,59.5,29.41,NNW,333,4.0,7.0,39,0.00,,,0.00,VWS V14.01,2013-07-01 20:56:00,
2013-07-01 16:00:00,86.9,58.3,29.40,North,355,6.0,7.0,38,0.00,,,0.00,VWS V14.01,2013-07-01 21:00:00,
2013-07-01 16:01:00,86.6,58.0,29.41,North,355,2.0,6.0,38,0.00,,,0.00,VWS V14.01,2013-07-01 21:01:00,
2013-07-01 16:06:00,85.7,58.6,29.40,NNW,327,1.0,9.0,40,0.00,,,0.00,VWS V14.01,2013-07-01 21:06:00,
2013-07-01 16:10:00,85.3,58.3,29.40,NNE,23,2.0,9.0,40,0.00,,,0.00,VWS V14.01,2013-07-01 21:10:00,
2013-07-01 16:11:00,85.2,58.2,29.40,NNE,16,0.0,5.0,40,0.00,,,0.00,VWS V14.01,2013-07-01 21:11:00,
2013-07-01 16:16:00,84.8,58.5,29.40,North,351,5.0,7.0,41,0.00,,,0.00,VWS V14.01,2013-07-01 21:16:00,
2013-07-01 16:20:00,84.9,58.6,29.40,NNW,336,2.0,7.0,41,0.00,,,0.00,VWS V14.01,2013-07-01 21:20:00,
2013-07-01 16:21:00,85.1,58.8,29.40,North,5,1.0,7.0,41,0.00,,,0.00,VWS V14.01,2013-07-01 21:21:00,
2013-07-01 16:26:00,86.4,58.5,29.40,NW,312,6.0,10.0,39,0.00,,,0.00,VWS V14.01,2013-07-01 21:26:00,
2013-07-01 16:30:00,86.5,57.9,29.40,NNE,17,1.0,10.0,38,0.00,,,0.00,VWS V14.01,2013-07-01 21:30:00,
2013-07-01 16:31:00,86.2,58.4,29.40,NNW,343,6.0,8.0,39,0.00,,,0.00,VWS V14.01,2013-07-01 21:31:00,
2013-07-01 16:36:00,85.4,58.4,29.40,North,360,3.0,8.0,40,0.00,,,0.00,VWS V14.01,2013-07-01 21:36:00,
2013-07-01 16:40:00,85.3,58.3,29.40,North,5,2.0,8.0,40,0.00,,,0.00,VWS V14.01,2013-07-01 21:40:00,
2013-07-01 16:41:00,85.6,59.9,29.40,ENE,58,2.0,7.0,42,0.00,,,0.00,VWS V14.01,2013-07-01 21:41:00,
2013-07-01 16:46:00,86.1,58.3,29.40,North,355,9.0,11.0,39,0.00,,,0.00,VWS V14.01,2013-07-01 21:46:00,
2013-07-01 16:50:00,86.4,59.9,29.39,NNW,344,3.0,11.0,41,0.00,,,0.00,VWS V14.01,2013-07-01 21:50:00,
2013-07-01 16:51:00,86.7,58.8,29.39,North,9,3.0,7.0,39,0.00,,,0.00,VWS V14.01,2013-07-01 21:51:00,
2013-07-01 16:56:00,87.2,59.2,29.39,NNE,16,2.0,7.0,39,0.00,,,0.00,VWS V14.01,2013-07-01 21:56:00,
2013-07-01 17:00:00,87.2,58.5,29.39,North,350,2.0,11.0,38,0.00,,,0.00,VWS V14.01,2013-07-01 22:00:00,
2013-07-01 17:01:00,87.0,59.1,29.39,North,349,3.0,3.0,39,0.00,,,0.00,VWS V14.01,2013-07-01 22:01:00,
2013-07-01 17:06:00,86.9,58.3,29.39,WNW,297,2.0,8.0,38,0.00,,,0.00,VWS V14.01,2013-07-01 22:06:00,
2013-07-01 17:10:00,87.1,57.7,29.39,North,355,1.0,8.0,37,0.00,,,0.00,VWS V14.01,2013-07-01 22:10:00,
2013-07-01 17:11:00,87.1,58.4,29.39,North,350,6.0,6.0,38,0.00,,,0.00,VWS V14.01,2013-07-01 22:11:00,
2013-07-01 17:16:00,86.3,57.7,29.39,NNW,327,4.0,9.0,38,0.00,,,0.00,VWS V14.01,2013-07-01 22:16:00,
2013-07-01 17:20:00,85.6,58.5,29.39,WNW,301,1.0,9.0,40,0.00,,,0.00,VWS V14.01,2013-07-01 22:20:00,
2013-07-01 17:21:00,85.3,57.6,29.39,NNW,344,4.0,7.0,39,0.00,,,0.00,VWS V14.01,2013-07-01 22:21:00,
2013-07-01 17:26:00,85.5,58.5,29.39,North,351,4.0,10.0,40,0.00,,,0.00,VWS V14.01,2013-07-01 22:26:00,
2013-07-01 17:30:00,85.9,58.8,29.39,NNW,331,3.0,10.0,40,0.00,,,0.00,VWS V14.01,2013-07-01 22:30:00,
2013-07-01 17:31:00,86.0,58.2,29.39,NNE,14,6.0,11.0,39,0.00,,,0.00,VWS V14.01,2013-07-01 22:31:00,
2013-07-01 17:36:00,86.2,58.4,29.39,NW,315,10.0,11.0,39,0.00,,,0.00,VWS V14.01,2013-07-01 22:36:00,
2013-07-01 17:40:00,86.2,58.4,29.39,NW,323,0.0,11.0,39,0.00,,,0.00,VWS V14.01,2013-07-01 22:40:00,
2013-07-01 17:41:00,86.1,58.3,29.39,North,350,2.0,7.0,39,0.00,,,0.00,VWS V14.01,2013-07-01 22:41:00,
2013-07-01 17:46:00,85.4,58.4,29.39,North,350,2.0,7.0,40,0.00,,,0.00,VWS V14.01,2013-07-01 22:46:00,
2013-07-01 17:50:00,85.2,58.9,29.39,NNW,346,2.0,7.0,41,0.00,,,0.00,VWS V14.01,2013-07-01 22:50:00,
2013-07-01 17:51:00,85.3,58.3,29.39,NNE,33,4.0,6.0,40,0.00,,,0.00,VWS V14.01,2013-07-01 22:51:00,
2013-07-01 17:56:00,85.6,58.5,29.39,NNW,331,7.0,9.0,40,0.00,,,0.00,VWS V14.01,2013-07-01 22:56:00,
2013-07-01 18:00:00,85.5,58.5,29.39,NW,305,1.0,9.0,40,0.00,,,0.00,VWS V14.01,2013-07-01 23:00:00,
2013-07-01 18:01:00,85.4,58.4,29.39,NNE,13,2.0,4.0,40,0.00,,,0.00,VWS V14.01,2013-07-01 23:01:00,
2013-07-01 18:06:00,85.3,57.6,29.39,NNW,329,4.0,7.0,39,0.00,,,0.00,VWS V14.01,2013-07-01 23:06:00,
2013-07-01 18:10:00,85.2,57.5,29.39,North,11,2.0,7.0,39,0.00,,,0.00,VWS V14.01,2013-07-01 23:10:00,
2013-07-01 18:11:00,85.2,57.5,29.39,NNE,22,2.0,3.0,39,0.00,,,0.00,VWS V14.01,2013-07-01 23:11:00,
2013-07-01 18:16:00,85.0,58.0,29.39,NE,46,6.0,6.0,40,0.00,,,0.00,VWS V14.01,2013-07-01 23:16:00,
2013-07-01 18:20:00,85.0,58.7,29.39,NNW,336,7.0,7.0,41,0.00,,,0.00,VWS V14.01,2013-07-01 23:20:00,
2013-07-01 18:21:00,85.0,58.0,29.39,North,360,7.0,9.0,40,0.00,,,0.00,VWS V14.01,2013-07-01 23:21:00,
2013-07-01 18:26:00,85.0,58.0,29.39,North,360,5.0,9.0,40,0.00,,,0.00,VWS V14.01,2013-07-01 23:26:00,
2013-07-01 18:30:00,85.2,57.5,29.39,NNW,330,3.0,11.0,39,0.00,,,0.00,VWS V14.01,2013-07-01 23:30:00,
2013-07-01 18:31:00,85.2,58.2,29.39,NNW,344,2.0,5.0,40,0.00,,,0.00,VWS V14.01,2013-07-01 23:31:00,
2013-07-01 18:36:00,85.1,57.4,29.39,North,5,3.0,7.0,39,0.00,,,0.00,VWS V14.01,2013-07-01 23:36:00,
2013-07-01 18:40:00,85.0,58.0,29.39,North,355,2.0,7.0,40,0.00,,,0.00,VWS V14.01,2013-07-01 23:40:00,
2013-07-01 18:41:00,85.0,58.0,29.39,North,355,2.0,2.0,40,0.00,,,0.00,VWS V14.01,2013-07-01 23:41:00,
2013-07-01 18:46:00,85.0,58.7,29.39,North,350,5.0,5.0,41,0.00,,,0.00,VWS V14.01,2013-07-01 23:46:00,
2013-07-01 18:51:00,85.0,58.7,29.39,NNE,20,0.0,4.0,41,0.00,,,0.00,VWS V14.01,2013-07-01 23:51:00,
2013-07-01 18:56:00,85.0,58.7,29.39,NNW,341,1.0,10.0,41,0.00,,,0.00,VWS V14.01,2013-07-01 23:56:00,
2013-07-01 19:00:00,85.0,58.0,29.39,NNW,332,0.0,10.0,40,0.00,,,0.00,VWS V14.01,2013-07-02 00:00:00,
2013-07-01 19:01:00,85.0,58.7,29.39,NNW,335,5.0,5.0,41,0.00,,,0.00,VWS V14.01,2013-07-02 00:01:00,
2013-07-01 19:06:00,84.8,58.5,29.40,NNW,337,1.0,7.0,41,0.00,,,0.00,VWS V14.01,2013-07-02 00:06:00,
2013-07-01 19:10:00,84.8,58.5,29.40,North,355,1.0,7.0,41,0.00,,,0.00,VWS V14.01,2013-07-02 00:10:00,
2013-07-01 19:11:00,84.7,57.7,29.40,North,355,0.0,2.0,40,0.00,,,0.00,VWS V14.01,2013-07-02 00:11:00,
2013-07-01 19:16:00,84.5,57.5,29.40,NW,321,1.0,5.0,40,0.00,,,0.00,VWS V14.01,2013-07-02 00:16:00,
2013-07-01 19:20:00,84.4,57.5,29.40,North,9,1.0,7.0,40,0.00,,,0.00,VWS V14.01,2013-07-02 00:20:00,
2013-07-01 19:21:00,84.3,57.4,29.40,NW,324,5.0,5.0,40,0.00,,,0.00,VWS V14.01,2013-07-02 00:21:00,
2013-07-01 19:26:00,84.2,58.0,29.40,North,350,3.0,5.0,41,0.00,,,0.00,VWS V14.01,2013-07-02 00:26:00,
2013-07-01 19:30:00,84.1,57.9,29.40,NNW,348,2.0,5.0,41,0.00,,,0.00,VWS V14.01,2013-07-02 00:30:00,
2013-07-01 19:31:00,84.1,57.9,29.40,NNW,333,3.0,5.0,41,0.00,,,0.00,VWS V14.01,2013-07-02 00:31:00,
2013-07-01 19:36:00,84.0,57.8,29.40,NNE,23,3.0,7.0,41,0.00,,,0.00,VWS V14.01,2013-07-02 00:36:00,
2013-07-01 19:40:00,83.9,57.7,29.40,NNE,19,1.0,7.0,41,0.00,,,0.00,VWS V14.01,2013-07-02 00:40:00,
2013-07-01 19:41:00,83.9,58.4,29.40,NNE,19,1.0,2.0,42,0.00,,,0.00,VWS V14.01,2013-07-02 00:41:00,
2013-07-01 19:46:00,83.8,58.3,29.40,NNE,17,0.0,4.0,42,0.00,,,0.00,VWS V14.01,2013-07-02 00:46:00,
2013-07-01 19:50:00,83.7,58.2,29.40,NNE,17,0.0,4.0,42,0.00,,,0.00,VWS V14.01,2013-07-02 00:50:00,
2013-07-01 19:51:00,83.7,58.2,29.40,NNE,17,0.0,0.0,42,0.00,,,0.00,VWS V14.01,2013-07-02 00:51:00,
2013-07-01 19:56:00,83.6,58.1,29.40,NNE,17,0.0,3.0,42,0.00,,,0.00,VWS V14.01,2013-07-02 00:56:00,
2013-07-01 20:00:00,83.5,58.0,29.40,NNE,17,0.0,3.0,42,0.00,,,0.00,VWS V14.01,2013-07-02 01:00:00,
2013-07-01 20:01:00,83.4,57.9,29.40,NNE,17,0.0,2.0,42,0.00,,,0.00,VWS V14.01,2013-07-02 01:01:00,
2013-07-01 20:06:00,83.3,57.8,29.41,NNE,17,0.0,2.0,42,0.00,,,0.00,VWS V14.01,2013-07-02 01:06:00,
2013-07-01 20:10:00,83.1,57.7,29.41,NNE,17,0.0,2.0,42,0.00,,,0.00,VWS V14.01,2013-07-02 01:10:00,
2013-07-01 20:11:00,83.0,57.6,29.41,NNE,17,1.0,1.0,42,0.00,,,0.00,VWS V14.01,2013-07-02 01:11:00,
2013-07-01 20:16:00,82.9,58.1,29.41,NNE,17,1.0,3.0,43,0.00,,,0.00,VWS V14.01,2013-07-02 01:16:00,
2013-07-01 20:20:00,82.7,58.0,29.41,NNE,17,0.0,3.0,43,0.00,,,0.00,VWS V14.01,2013-07-02 01:20:00,
2013-07-01 20:21:00,82.7,58.0,29.41,NNE,17,0.0,0.0,43,0.00,,,0.00,VWS V14.01,2013-07-02 01:21:00,
2013-07-01 20:26:00,82.4,57.7,29.41,NNE,17,0.0,1.0,43,0.00,,,0.00,VWS V14.01,2013-07-02 01:26:00,
2013-07-01 20:30:00,82.3,58.2,29.41,NNE,17,0.0,1.0,44,0.00,,,0.00,VWS V14.01,2013-07-02 01:30:00,
2013-07-01 20:31:00,82.2,58.1,29.41,NNE,17,0.0,0.0,44,0.00,,,0.00,VWS V14.01,2013-07-02 01:31:00,
2013-07-01 20:36:00,82.0,58.0,29.41,NNE,17,0.0,0.0,44,0.00,,,0.00,VWS V14.01,2013-07-02 01:36:00,
2013-07-01 20:40:00,81.9,57.9,29.41,NNE,17,0.0,0.0,44,0.00,,,0.00,VWS V14.01,2013-07-02 01:40:00,
2013-07-01 20:41:00,81.8,58.4,29.41,NNE,17,0.0,0.0,45,0.00,,,0.00,VWS V14.01,2013-07-02 01:41:00,
2013-07-01 20:46:00,81.6,58.2,29.41,NNE,17,0.0,0.0,45,0.00,,,0.00,VWS V14.01,2013-07-02 01:46:00,
2013-07-01 20:50:00,81.4,58.7,29.42,NNE,17,0.0,0.0,46,0.00,,,0.00,VWS V14.01,2013-07-02 01:50:00,
2013-07-01 20:51:00,81.4,58.7,29.42,NNE,17,0.0,0.0,46,0.00,,,0.00,VWS V14.01,2013-07-02 01:51:00,
2013-07-01 20:56:00,81.1,58.4,29.42,NNE,17,0.0,0.0,46,0.00,,,0.00,VWS V14.01,2013-07-02 01:56:00,
2013-07-01 21:00:00,80.9,58.8,29.42,NNE,17,0.0,0.0,47,0.00,,,0.00,VWS V14.01,2013-07-02 02:00:00,
2013-07-01 21:01:00,80.8,58.7,29.42,NNE,17,0.0,0.0,47,0.00,,,0.00,VWS V14.01,2013-07-02 02:01:00,
2013-07-01 21:06:00,80.4,58.3,29.42,NNE,17,0.0,0.0,47,0.00,,,0.00,VWS V14.01,2013-07-02 02:06:00,
2013-07-01 21:10:00,80.2,58.8,29.42,NNE,17,0.0,0.0,48,0.00,,,0.00,VWS V14.01,2013-07-02 02:10:00,
2013-07-01 21:11:00,80.0,58.6,29.42,NNE,17,0.0,0.0,48,0.00,,,0.00,VWS V14.01,2013-07-02 02:11:00,
2013-07-01 21:16:00,79.6,58.8,29.42,NNE,17,0.0,0.0,49,0.00,,,0.00,VWS V14.01,2013-07-02 02:16:00,
2013-07-01 21:20:00,79.3,58.5,29.42,NNE,17,0.0,0.0,49,0.00,,,0.00,VWS V14.01,2013-07-02 02:20:00,
2013-07-01 21:21:00,79.2,58.4,29.42,NNE,17,0.0,0.0,49,0.00,,,0.00,VWS V14.01,2013-07-02 02:21:00,
2013-07-01 21:26:00,78.8,58.6,29.42,NNE,17,0.0,0.0,50,0.00,,,0.00,VWS V14.01,2013-07-02 02:26:00,
2013-07-01 21:30:00,78.5,58.9,29.42,NNE,17,0.0,0.0,51,0.00,,,0.00,VWS V14.01,2013-07-02 02:30:00,
2013-07-01 21:31:00,78.5,58.9,29.42,NNE,17,0.0,0.0,51,0.00,,,0.00,VWS V14.01,2013-07-02 02:31:00,
2013-07-01 21:32:00,78.4,58.8,29.42,NNE,17,0.0,0.0,51,0.00,,,0.00,VWS V14.01,2013-07-02 02:32:00,
2013-07-01 21:37:00,78.1,59.1,29.42,NNE,17,0.0,0.0,52,0.00,,,0.00,VWS V14.01,2013-07-02 02:37:00,
2013-07-01 21:40:00,77.9,58.9,29.42,NNE,17,0.0,0.0,52,0.00,,,0.00,VWS V14.01,2013-07-02 02:40:00,
2013-07-01 21:42:00,77.8,58.8,29.42,NNE,17,0.0,0.0,52,0.00,,,0.00,VWS V14.01,2013-07-02 02:42:00,
2013-07-01 21:47:00,77.5,59.0,29.43,NNE,17,0.0,0.0,53,0.00,,,0.00,VWS V14.01,2013-07-02 02:47:00,
2013-07-01 21:50:00,77.3,58.8,29.43,NNE,17,0.0,0.0,53,0.00,,,0.00,VWS V14.01,2013-07-02 02:50:00,
2013-07-01 21:52:00,77.1,59.2,29.43,NNE,17,0.0,0.0,54,0.00,,,0.00,VWS V14.01,2013-07-02 02:52:00,
2013-07-01 21:57:00,76.8,58.9,29.43,NNE,17,0.0,0.0,54,0.00,,,0.00,VWS V14.01,2013-07-02 02:57:00,
2013-07-01 22:00:00,76.6,58.7,29.43,NNE,17,0.0,0.0,54,0.00,,,0.00,VWS V14.01,2013-07-02 03:00:00,
2013-07-01 22:02:00,76.5,58.6,29.43,NNE,17,0.0,0.0,54,0.00,,,0.00,VWS V14.01,2013-07-02 03:02:00,
2013-07-01 22:07:00,76.1,58.8,29.43,NNE,17,0.0,0.0,55,0.00,,,0.00,VWS V14.01,2013-07-02 03:07:00,
2013-07-01 22:10:00,75.9,59.1,29.43,NNE,17,0.0,0.0,56,0.00,,,0.00,VWS V14.01,2013-07-02 03:10:00,
2013-07-01 22:12:00,75.8,59.0,29.43,NNE,17,0.0,0.0,56,0.00,,,0.00,VWS V14.01,2013-07-02 03:12:00,
2013-07-01 22:17:00,75.5,58.7,29.43,NNE,17,0.0,0.0,56,0.00,,,0.00,VWS V14.01,2013-07-02 03:17:00,
2013-07-01 22:20:00,75.3,58.5,29.43,NNE,17,0.0,0.0,56,0.00,,,0.00,VWS V14.01,2013-07-02 03:20:00,
2013-07-01 22:22:00,75.2,58.4,29.43,NNE,17,0.0,0.0,56,0.00,,,0.00,VWS V14.01,2013-07-02 03:22:00,
2013-07-01 22:27:00,74.9,58.7,29.44,NNE,17,0.0,0.0,57,0.00,,,0.00,VWS V14.01,2013-07-02 03:27:00,
2013-07-01 22:30:00,74.8,58.6,29.44,NNE,17,0.0,0.0,57,0.00,,,0.00,VWS V14.01,2013-07-02 03:30:00,
2013-07-01 22:32:00,74.7,59.0,29.44,NNE,17,0.0,0.0,58,0.00,,,0.00,VWS V14.01,2013-07-02 03:32:00,
2013-07-01 22:37:00,74.4,58.7,29.44,NNE,17,0.0,0.0,58,0.00,,,0.00,VWS V14.01,2013-07-02 03:37:00,
2013-07-01 22:40:00,74.3,59.1,29.44,NNE,17,0.0,0.0,59,0.00,,,0.00,VWS V14.01,2013-07-02 03:40:00,
2013-07-01 22:42:00,74.2,59.0,29.44,NNE,17,0.0,0.0,59,0.00,,,0.00,VWS V14.01,2013-07-02 03:42:00,
2013-07-01 22:47:00,73.9,59.2,29.44,NNE,17,0.0,0.0,60,0.00,,,0.00,VWS V14.01,2013-07-02 03:47:00,
2013-07-01 22:50:00,73.8,59.1,29.44,NNE,17,0.0,0.0,60,0.00,,,0.00,VWS V14.01,2013-07-02 03:50:00,
2013-07-01 22:52:00,73.7,59.0,29.44,NNE,17,0.0,0.0,60,0.00,,,0.00,VWS V14.01,2013-07-02 03:52:00,
2013-07-01 22:57:00,73.5,58.8,29.44,NNE,17,0.0,0.0,60,0.00,,,0.00,VWS V14.01,2013-07-02 03:57:00,
2013-07-01 23:00:00,73.3,59.0,29.44,NNE,17,0.0,0.0,61,0.00,,,0.00,VWS V14.01,2013-07-02 04:00:00,
2013-07-01 23:01:00,73.2,59.0,29.44,NNE,17,0.0,0.0,61,0.00,,,0.00,VWS V14.01,2013-07-02 04:01:00,
2013-07-01 23:06:00,73.0,58.8,29.44,NNE,17,0.0,0.0,61,0.00,,,0.00,VWS V14.01,2013-07-02 04:06:00,
2013-07-01 23:10:00,72.8,59.0,29.45,NNE,17,0.0,0.0,62,0.00,,,0.00,VWS V14.01,2013-07-02 04:10:00,
2013-07-01 23:11:00,72.8,59.0,29.45,NNE,17,0.0,0.0,62,0.00,,,0.00,VWS V14.01,2013-07-02 04:11:00,
2013-07-01 23:16:00,72.5,58.8,29.45,NNE,17,0.0,0.0,62,0.00,,,0.00,VWS V14.01,2013-07-02 04:16:00,
2013-07-01 23:20:00,72.3,58.6,29.45,NNE,17,0.0,0.0,62,0.00,,,0.00,VWS V14.01,2013-07-02 04:20:00,
2013-07-01 23:21:00,72.3,58.6,29.45,NNE,17,0.0,0.0,62,0.00,,,0.00,VWS V14.01,2013-07-02 04:21:00,
2013-07-01 23:26:00,72.1,58.8,29.45,NNE,17,0.0,0.0,63,0.00,,,0.00,VWS V14.01,2013-07-02 04:26:00,
2013-07-01 23:30:00,71.9,59.1,29.45,NNE,17,0.0,0.0,64,0.00,,,0.00,VWS V14.01,2013-07-02 04:30:00,
2013-07-01 23:31:00,71.9,59.1,29.45,NNE,17,0.0,0.0,64,0.00,,,0.00,VWS V14.01,2013-07-02 04:31:00,
2013-07-01 23:36:00,71.6,59.2,29.45,NNE,17,0.0,0.0,65,0.00,,,0.00,VWS V14.01,2013-07-02 04:36:00,
2013-07-01 23:40:00,71.4,58.6,29.45,NNE,17,0.0,0.0,64,0.00,,,0.00,VWS V14.01,2013-07-02 04:40:00,
2013-07-01 23:41:00,71.4,58.6,29.45,NNE,17,0.0,0.0,64,0.00,,,0.00,VWS V14.01,2013-07-02 04:41:00,
2013-07-01 23:46:00,71.2,58.4,29.45,NNE,17,0.0,0.0,64,0.00,,,0.00,VWS V14.01,2013-07-02 04:46:00,
2013-07-01 23:50:00,71.1,58.8,29.45,NNE,17,0.0,0.0,65,0.00,,,0.00,VWS V14.01,2013-07-02 04:50:00,
2013-07-01 23:51:00,71.0,58.7,29.45,NNE,17,0.0,0.0,65,0.00,,,0.00,VWS V14.01,2013-07-02 04:51:00,
2013-07-01 23:56:00,70.8,58.9,29.45,NNE,17,0.0,0.0,66,0.00,,,0.00,VWS V14.01,2013-07-02 04:56:00,